CAPE
1364 1840 2220 2365 2221 2097 1984 1982 2041 2212 2293 2388 2322 2289 2338 2380 2389 2306 2197 2152 2164 2015 1727 1440 1099 951 1103 1325 1393 1381 1597 1561 1582 1361 1309 1002 792 885 383 218 257 78 81
1502 1942 2176 2258 2221 2088 2041 2060 2188 2328 2490 2528 2347 2262 2301 2326 2293 2239 2156 2046 1933 1773 1543 1222 852 629 735 905 1111 1511 1469 1313 1383 1349 1223 753 559 521 549 417 413 149 214
1755 2057 2104 2137 2181 2161 2221 2289 2482 2622 2670 2570 2398 2328 2380 2344 2294 2236 2168 2042 2025 1606 1378 1077 741 518 402 418 630 714 933 1278 1292 1127 858 366 300 764 801 610 690 298 206
1870 1952 2016 2106 2227 2259 2217 2335 2546 2769 2693 2572 2478 2446 2420 2315 2179 2129 1782 1736 1852 1491 1273 1017 735 480 324 287 140 199 300 322 345 730 786 561 277 568 704 847 605 404 291
1605 1858 2080 2086 2161 2151 2233 2391 2560 2593 2490 2454 2416 2486 2410 2318 2221 2090 1646 1651 1833 1517 1243 1012 694 388 260 18 0 15 196 401 274 188 116 286 391 803 521 438 424 455 424
1517 1792 1811 1990 2016 2079 2274 2439 2471 2389 2280 2272 2331 2448 2441 2335 2211 1961 1748 1794 1903 1619 1319 1005 574 271 35 0 0 0 260 255 256 29 513 534 716 1156 450 468 441 384 356
1389 1418 1558 1768 1995 2165 2405 2413 2271 2188 2115 2177 2277 2335 2375 2264 2016 1798 1660 1715 1744 1778 1359 862 447 183 3 0 0 0 145 208 313 280 516 574 761 930 613 473 459 371 299
1079 1143 1421 1715 2008 2220 2347 2208 2057 2024 2012 2062 2126 2116 2215 2028 1721 1642 1541 1529 1531 1507 1202 755 348 110 0 0 0 0 25 177 342 661 635 683 1147 1099 770 497 460 415 287
1019 916 1138 1523 1819 1981 1991 1939 1868 1852 1863 1908 1910 1885 1823 1586 1381 1431 1444 1486 1520 1200 978 606 281 50 0 0 0 0 0 24 177 657 726 765 1330 1237 981 655 543 436 329
996 878 846 1106 1354 1430 1501 1633 1558 1579 1638 1709 1686 1626 1481 1301 1210 1250 1293 1370 1421 1156 937 614 246 18 0 0 0 0 0 0 338 708 690 806 1465 1377 1173 1009 715 520 398
1122 884 767 898 914 905 1023 1248 1273 1382 1454 1490 1457 1363 1157 907 959 1094 1049 1275 1272 1040 868 595 240 14 0 0 0 0 0 24 320 411 524 1051 1534 1358 1181 1157 1033 677 484
1144 864 755 766 733 685 1082 816 743 1035 930 924 925 744 622 583 609 860 834 1028 1186 996 786 542 242 9 0 0 0 0 0 51 152 343 534 877 1303 970 674 503 543 971 635
1115 881 732 716 714 697 807 360 311 307 399 507 588 494 456 310 382 504 338 956 868 864 517 386 85 0 0 0 0 0 0 0 46 162 472 731 1012 763 368 109 116 199 863
1003 810 658 679 767 643 479 411 310 320 278 266 288 354 272 132 139 176 312 651 564 469 196 51 0 0 0 0 0 0 0 0 0 9 173 403 539 691 224 95 96 407 632
1099 761 621 651 814 649 522 361 338 298 285 242 143 235 172 100 133 229 334 432 343 128 99 5 0 0 0 0 0 0 0 0 0 0 0 116 169 403 149 22 279 419 427
1330 945 690 727 827 726 630 269 348 314 264 142 131 216 264 42 226 284 236 290 257 156 41 9 0 0 0 0 0 0 0 0 0 0 0 1 23 66 106 159 331 547 632
1485 1155 875 821 827 804 785 424 328 424 302 284 231 257 470 337 306 475 374 379 316 188 176 47 0 0 0 0 0 0 0 0 0 0 0 0 0 0 28 226 334 537 488
1523 1299 940 1052 950 1017 1044 992 869 763 590 485 555 471 611 671 618 657 533 476 472 351 264 102 33 0 0 0 0 0 0 0 0 0 0 0 0 0 0 15 76 144 174
1468 1370 1281 1233 1025 838 839 921 959 1023 1067 933 945 621 666 864 860 745 593 494 331 348 372 0 0 0 0 0 0 0 0 0 0 0 0 0 0 0 0 0 0 0 0
1261 1422 1327 1301 849 643 559 599 541 842 1007 995 1068 1130 1069 1137 1043 614 469 470 389 425 424 42 0 0 0 0 0 0 0 0 0 0 0 0 0 0 0 0 0 0 0
1090 1352 1188 991 754 681 554 701 825 975 795 744 944 922 1081 1112 1090 1000 885 586 393 505 393 173 0 0 0 0 0 0 0 0 0 0 0 0 0 0 0 0 0 0 0
782 1000 910 776 784 761 572 262 424 508 579 518 555 621 685 783 835 857 808 839 524 305 237 85 0 0 0 0 0 0 0 0 0 0 0 0 0 0 0 0 0 0 0
0 0 0 0 32 650 448 29 0 0 1 1 1 3 53 177 205 273 249 246 236 261 329 228 23 0 58 0 0 0 0 0 0 0 0 0 0 0 0 0 0 0 0
0 0 0 0 0 33 120 13 1 0 0 0 0 0 3 0 0 0 18 9 3 10 72 47 0 1 0 0 0 0 0 0 0 0 0 0 0 0 0 0 0 0 0
0 0 0 0 0 0 0 0 0 0 0 0 0 0 0 0 0 0 0 0 0 0 0 0 0 4 2 1 0 0 0 0 0 0 0 0 0 0 0 0 0 0 0
0 0 0 0 0 0 0 0 0 0 0 0 0 0 0 0 0 0 0 0 0 0 0 0 0 0 0 3 12 13 0 5 0 0 0 0 0 0 0 0 0 0 0
CIN
-438 -331 -272 -291 -324 -344 -374 -351 -291 -214 -159 -116 -90 -75 -61 -49 -35 -28 -22 -14 -8 -9 -11 -18 -34 -38 -26 -11 -1 -0 -0 -0 -0 -0 -0 -10 -24 -11 -55 -79 -72 -130 -135
-431 -289 -232 -275 -319 -303 -319 -304 -242 -176 -128 -101 -100 -93 -72 -54 -42 -34 -26 -24 -21 -21 -28 -43 -75 -96 -73 -49 -22 -0 -1 -3 -2 -1 -3 -22 -37 -48 -44 -56 -54 -105 -85
-410 -277 -239 -284 -314 -278 -254 -232 -171 -113 -89 -82 -83 -79 -56 -44 -43 -37 -26 -24 -19 -30 -40 -64 -95 -119 -136 -118 -73 -53 -23 -3 -4 -5 -14 -55 -55 -11 -32 -35 -13 -64 -89
-424 -334 -278 -277 -298 -266 -250 -200 -134 -85 -74 -77 -75 -63 -66 -59 -64 -53 -74 -60 -33 -53 -59 -72 -103 -146 -181 -172 -229 -186 -140 -127 -106 -33 -21 -25 -47 -20 -16 -31 -30 -44 -77
-435 -370 -284 -278 -286 -262 -233 -185 -132 -95 -102 -102 -97 -70 -67 -73 -69 -70 -111 -79 -30 -50 -63 -83 -137 -199 -229 -197 -0 -366 -201 -137 -174 -168 -179 -100 -53 -12 -33 -69 -77 -57 -58
-450 -346 -324 -293 -288 -254 -207 -169 -153 -138 -123 -127 -107 -60 -50 -51 -57 -80 -103 -63 -28 -47 -80 -129 -207 -274 -401 -0 -0 -0 -217 -217 -203 -261 -91 -85 -43 -3 -49 -66 -92 -75 -64
-532 -413 -377 -321 -255 -226 -180 -177 -174 -169 -147 -126 -91 -69 -47 -53 -75 -95 -114 -73 -53 -29 -76 -168 -258 -340 -201 -0 -0 -0 -282 -266 -197 -189 -110 -96 -52 -27 -37 -55 -92 -84 -79
-524 -467 -398 -297 -243 -210 -177 -181 -176 -187 -161 -143 -118 -92 -69 -85 -134 -131 -133 -104 -88 -84 -119 -205 -309 -402 -0 -0 -0 -0 -404 -274 -197 -121 -113 -74 -26 -6 -19 -43 -68 -75 -80
-456 -501 -441 -324 -231 -202 -175 -198 -196 -184 -164 -143 -136 -112 -114 -142 -174 -164 -137 -115 -100 -156 -192 -262 -349 -466 -0 -0 -0 -0 -0 -395 -267 -122 -93 -72 -17 -8 -11 -23 -73 -66 -74
-454 -463 -510 -419 -317 -301 -256 -214 -193 -163 -161 -147 -145 -136 -147 -168 -193 -190 -165 -130 -118 -168 -202 -266 -362 -501 -0 -0 -0 -0 -0 -0 -218 -117 -97 -65 -8 -8 -1 -9 -52 -59 -72
-385 -458 -508 -454 -443 -424 -348 -254 -208 -171 -163 -147 -143 -153 -188 -235 -232 -203 -217 -156 -137 -175 -205 -254 -355 -417 -0 -0 -0 -0 -0 -289 -254 -197 -152 -31 -0 -2 -3 -5 -15 -35 -42
-390 -444 -491 -489 -501 -460 -275 -305 -302 -223 -247 -235 -222 -261 -293 -305 -309 -235 -239 -189 -137 -171 -208 -254 -323 -398 -0 -0 -0 -0 -0 -259 -323 -251 -171 -55 -4 -23 -65 -85 -67 -3 -19
-441 -467 -522 -527 -473 -416 -329 -429 -414 -405 -365 -327 -286 -310 -324 -371 -332 -281 -349 -165 -178 -171 -268 -275 -373 -0 -0 -0 -0 -0 -0 -0 -373 -307 -209 -114 -42 -60 -128 -219 -221 -198 -20
-452 -507 -517 -511 -422 -412 -413 -402 -412 -398 -409 -390 -380 -341 -359 -433 -397 -375 -310 -213 -233 -264 -346 -413 -0 -0 -0 -0 -0 -0 -0 -0 -0 -426 -285 -186 -148 -106 -202 -243 -236 -152 -87
-394 -447 -467 -441 -398 -402 -401 -421 -415 -408 -429 -427 -453 -396 -427 -456 -419 -353 -293 -260 -280 -368 -372 -326 -0 -0 -0 -0 -0 -0 -0 -0 -0 -0 -0 -258 -210 -132 -200 -277 -161 -133 -121
-338 -349 -407 -416 -371 -372 -364 -459 -424 -406 -439 -490 -445 -379 -359 -512 -352 -303 -312 -284 -287 -329 -448 -501 -0 -0 -0 -0 -0 -0 -0 -0 -0 -0 -0 -95 -349 -265 -220 -169 -116 -84 -83
-280 -357 -408 -377 -346 -353 -350 -402 -421 -380 -420 -405 -389 -354 -277 -320 -299 -237 -249 -248 -256 -308 -298 -405 -0 -0 -0 -0 -0 -0 -0 -0 -0 -0 -0 -0 -0 -0 -304 -136 -95 -70 -85
-266 -333 -343 -282 -280 -267 -280 -260 -269 -272 -305 -328 -305 -312 -277 -243 -234 -207 -223 -213 -196 -230 -243 -344 -407 -0 -0 -0 -0 -0 -0 -0 -0 -0 -0 -0 -0 -0 -0 -274 -197 -162 -152
-308 -317 -296 -270 -256 -280 -284 -259 -223 -216 -180 -190 -194 -251 -220 -179 -185 -186 -203 -200 -229 -203 -180 -0 -0 -0 -0 -0 -0 -0 -0 -0 -0 -0 -0 -0 -0 -0 -0 -0 -0 -0 -1
-343 -305 -285 -293 -334 -310 -302 -266 -273 -204 -163 -150 -135 -116 -113 -98 -116 -186 -209 -181 -168 -145 -121 -333 -0 -0 -0 -0 -0 -0 -0 -0 -0 -0 -0 -0 -0 -0 -0 -0 -0 -0 -0
-319 -280 -285 -308 -323 -306 -275 -215 -155 -120 -133 -153 -120 -104 -79 -74 -69 -73 -90 -127 -155 -111 -117 -158 -0 -0 -0 -0 -0 -0 -0 -0 -0 -0 -0 -0 -0 -0 -0 -0 -0 -0 -0
-355 -289 -257 -269 -263 -253 -267 -337 -252 -206 -167 -175 -176 -126 -106 -88 -64 -62 -63 -61 -108 -145 -162 -227 -12 -0 -0 -0 -0 -0 -0 -0 -0 -0 -0 -0 -0 -0 -0 -0 -0 -0 -0
-0 -0 -0 -0 -98 -200 -242 -395 -0 -0 -173 -73 -106 -317 -252 -198 -191 -154 -143 -137 -141 -118 -91 -112 -215 -0 -89 -0 -0 -0 -0 -0 -0 -0 -0 -0 -0 -0 -0 -0 -0 -0 -0
-0 -0 -0 -0 -0 -59 -307 -405 -78 -0 -0 -0 -0 -0 -45 -27 -120 -0 -252 -282 -52 -46 -122 -108 -4 -20 -0 -0 -0 -0 -0 -0 -0 -0 -0 -0 -0 -0 -0 -0 -0 -0 -0
-0 -0 -0 -0 -0 -0 -0 -0 -0 -0 -0 -0 -0 -0 -0 -0 -0 -0 -0 -0 -0 -0 -0 -0 -0 -42 -46 -0 -0 -0 -0 -0 -0 -0 -0 -0 -0 -0 -0 -0 -0 -0 -0
-0 -0 -0 -0 -0 -0 -0 -0 -0 -0 -0 -0 -0 -0 -0 -0 -0 -0 -0 -0 -0 -0 -0 -0 -0 -16 -7 -15 -4 -11 -8 -9 -1 -0 -0 -0 -0 -0 -0 -0 -0 -0 -0
Wind_Speed
4 7 10 13 15 16 18 19 17 16 16 17 17 17 18 19 18 17 16 15 15 15 14 13 13 12 12 12 11 11 10 10 10 10 11 13 15 14 13 11 10 7 11
12 7 7 13 15 14 16 18 18 16 16 16 16 16 16 17 17 16 15 15 13 14 13 12 11 11 11 10 10 9 9 9 9 9 10 11 12 13 13 11 9 8 9
15 11 7 11 16 15 15 17 17 16 16 16 15 15 15 15 15 15 14 13 13 12 11 11 10 10 10 8 9 9 9 8 7 8 10 4 5 10 13 12 9 9 9
15 11 8 11 15 16 15 15 15 16 16 16 15 15 15 14 14 14 12 12 13 12 11 9 9 9 8 6 7 8 8 7 5 2 2 2 5 7 9 12 11 9 9
11 10 10 11 14 15 16 16 15 14 15 15 15 15 14 14 13 13 12 11 11 11 10 9 8 8 6 5 6 7 8 5 2 2 1 3 4 6 8 11 12 10 9
11 9 10 12 14 15 15 16 16 14 13 14 14 14 13 13 13 12 11 11 11 10 10 9 8 6 5 4 6 7 7 3 4 2 2 8 5 7 7 10 13 10 8
12 9 9 10 13 15 16 16 15 15 13 13 13 13 13 13 12 11 10 10 9 9 10 9 7 5 3 3 3 6 5 4 2 1 3 6 6 9 8 8 13 11 8
13 10 9 12 13 13 14 13 13 13 13 13 13 12 13 12 12 11 10 9 9 10 9 8 7 4 2 1 3 5 5 4 3 2 6 5 9 9 8 7 10 10 8
7 8 7 7 8 10 11 12 11 11 12 11 12 11 11 11 11 11 11 10 9 9 9 7 6 4 2 2 4 5 4 4 2 3 6 3 11 11 9 8 12 10 8
7 6 7 6 7 8 7 9 8 8 9 10 11 11 10 10 10 10 10 9 9 9 8 7 5 4 2 2 3 3 3 4 2 5 4 4 10 12 11 10 11 10 9
5 6 6 8 7 6 5 7 8 9 9 9 8 9 7 4 6 8 8 9 9 9 7 5 4 3 2 4 6 4 2 1 4 3 2 8 9 11 9 8 10 10 9
10 8 10 8 8 8 6 6 6 6 5 4 4 5 3 4 4 5 6 10 10 9 8 6 5 4 4 2 3 4 1 2 3 4 4 9 9 10 9 8 8 10 10
14 11 12 11 9 9 7 5 3 3 4 4 6 5 5 4 3 3 2 3 3 7 3 4 4 3 4 3 4 2 3 3 3 3 5 11 11 11 9 8 8 10 12
15 13 12 13 13 10 7 6 6 6 5 4 6 7 5 3 4 4 3 3 3 3 4 4 3 4 5 5 5 4 4 4 3 3 4 10 11 11 9 8 8 9 13
14 13 15 14 14 11 11 8 7 6 6 7 6 7 5 5 5 5 5 5 4 4 4 4 4 4 5 5 5 5 4 6 6 3 3 8 7 8 8 7 6 8 15
16 16 15 15 14 13 10 10 8 7 7 5 5 7 8 5 4 5 4 5 4 4 4 4 5 4 5 4 5 6 5 4 5 5 4 4 8 9 8 7 6 8 14
19 19 18 17 14 14 13 12 9 9 9 8 8 8 10 7 6 6 5 4 4 4 6 5 4 3 3 3 5 5 4 4 5 6 5 4 5 9 9 8 7 7 8
15 17 15 14 14 13 11 9 6 5 6 6 7 7 10 10 8 6 6 5 5 4 4 4 5 4 4 5 4 5 4 4 5 6 5 5 5 4 7 10 10 9 8
14 14 15 15 15 9 6 6 5 6 4 3 4 4 7 9 9 7 6 5 5 4 4 4 3 4 4 4 6 5 5 5 6 5 7 7 6 5 4 9 11 10 10
10 8 11 9 11 9 6 5 4 4 4 3 3 2 5 5 5 4 3 4 4 3 3 2 4 4 4 6 5 5 4 5 5 5 8 7 7 7 6 7 7 6 12
11 10 10 13 10 9 4 4 3 4 3 2 3 3 2 3 4 3 2 3 4 4 4 5 3 5 4 2 1 2 3 4 6 5 6 7 9 9 8 7 5 5 7
9 10 9 8 7 7 4 3 2 3 2 2 3 3 2 2 2 3 4 3 4 3 4 4 2 1 1 3 3 0 3 3 5 7 7 8 10 8 10 10 9 8 8
10 10 10 7 6 5 6 4 4 4 3 3 2 1 2 3 3 3 4 3 3 3 4 4 4 5 4 2 5 4 1 5 2 3 8 9 11 10 10 11 12 11 11
9 10 12 9 8 6 7 5 4 3 3 2 1 0 1 2 3 2 3 3 3 3 3 4 3 3 3 3 1 5 8 1 3 4 2 7 8 10 13 10 12 14 14
9 9 10 12 10 9 9 8 6 7 4 1 3 5 5 5 4 4 4 3 3 2 3 3 1 2 2 3 3 2 3 5 4 5 11 4 6 9 11 12 11 11 12
9 9 8 12 8 8 9 8 9 8 6 4 3 4 3 3 4 6 6 5 5 4 4 4 4 4 5 3 3 5 6 5 3 7 11 13 13 5 11 11 12 12 12
Wind_Direction
156 158 156 138 130 128 126 121 117 114 112 110 109 110 110 110 110 110 109 106 103 102 102 99 98 96 95 95 91 86 90 92 92 92 92 89 88 92 88 84 78 72 74
130 142 147 134 124 125 124 122 123 123 119 115 113 112 111 111 111 111 108 107 108 108 106 100 96 93 93 91 85 81 82 88 90 87 82 87 96 99 93 88 82 81 78
131 134 144 134 127 128 126 126 126 126 122 119 119 117 115 115 115 114 116 117 111 110 107 106 102 97 92 85 80 75 68 73 91 95 89 77 66 92 101 94 87 80 76
130 132 142 139 132 132 131 128 127 129 127 129 127 126 125 125 123 121 119 116 115 117 112 107 99 94 89 87 84 77 74 63 50 56 24 106 95 101 99 107 94 76 65
122 125 142 134 130 134 133 131 131 135 137 137 136 137 136 134 131 129 127 119 120 120 112 104 95 88 75 54 57 59 59 64 356 319 228 180 132 122 112 104 93 78 67
124 122 142 145 140 141 137 138 141 144 145 140 142 142 139 138 133 130 128 127 130 128 121 114 105 97 93 65 38 47 58 22 336 321 257 144 122 139 125 112 102 89 73
128 145 149 138 142 144 147 146 149 146 148 146 144 144 144 143 137 134 134 137 134 132 128 126 123 125 120 83 60 62 46 4 357 296 117 126 136 145 137 123 110 98 84
135 148 147 149 146 146 146 142 147 149 154 153 149 151 147 148 146 145 143 144 145 136 135 135 137 141 116 32 18 55 56 18 2 338 153 135 142 144 139 128 109 106 96
129 142 142 144 142 125 137 145 154 159 155 150 151 156 152 154 155 151 151 152 154 153 147 153 157 152 139 345 357 31 38 345 16 138 136 140 149 151 153 154 128 123 117
129 151 140 132 145 143 154 145 150 153 147 152 157 160 161 160 158 156 158 163 171 164 161 164 174 170 185 292 311 10 12 359 128 134 131 159 161 159 169 164 139 139 136
148 165 153 155 152 134 132 155 146 151 152 158 161 162 154 158 163 164 169 173 179 176 170 179 190 224 255 289 299 319 8 65 132 133 135 156 162 164 166 164 157 153 149
172 183 171 161 145 142 154 145 153 158 154 160 159 157 162 165 177 171 179 184 186 182 183 190 209 236 279 300 305 324 287 192 149 158 158 168 170 173 168 171 168 171 166
177 180 178 159 160 161 157 157 160 154 161 165 169 168 177 173 189 192 180 174 180 192 178 189 211 224 232 252 267 254 224 231 177 192 176 174 175 179 182 182 186 180 178
184 180 178 166 167 169 155 167 169 170 172 178 188 183 177 181 187 193 185 187 187 169 182 194 204 220 232 237 251 247 212 211 196 195 192 185 186 184 184 191 205 206 187
177 179 181 176 173 171 165 171 173 182 182 189 187 193 185 191 192 183 188 180 189 172 197 202 210 218 229 230 246 259 243 207 197 184 189 198 196 186 196 208 208 185 185
175 184 178 176 177 173 174 174 178 181 188 181 189 201 194 187 181 180 186 198 188 187 201 201 205 212 228 203 229 232 238 175 181 184 188 199 192 188 192 199 196 182 181
186 178 177 178 176 179 176 178 182 190 184 184 195 195 197 191 184 184 189 192 198 205 199 209 214 208 234 241 231 217 219 203 194 191 187 188 198 196 183 173 167 177 175
173 174 170 178 182 180 179 178 180 175 185 206 196 196 199 196 188 183 189 199 198 195 219 198 207 201 218 207 220 235 218 204 188 188 182 182 191 193 190 173 174 177 170
164 161 175 178 179 165 145 134 128 126 121 180 182 192 204 206 195 187 194 205 196 205 210 196 197 176 188 195 217 224 230 210 208 168 185 195 188 187 186 193 184 175 185
118 136 158 151 138 134 129 124 116 107 113 106 92 116 196 208 197 177 193 207 210 218 217 206 192 199 200 210 215 218 215 221 205 185 191 191 194 194 186 190 186 186 192
109 124 144 140 142 135 139 134 125 140 143 133 119 117 108 157 159 183 216 206 209 223 216 198 200 209 238 223 146 291 279 235 240 205 193 191 197 197 196 199 198 191 199
129 129 123 132 142 144 130 113 130 135 149 143 140 183 202 231 217 199 223 221 207 224 245 245 181 220 266 181 196 307 272 270 245 189 204 203 203 197 203 202 199 197 198
115 118 116 116 123 131 120 94 64 65 62 56 64 97 219 215 218 210 226 221 229 219 229 240 211 214 244 261 222 205 320 241 357 194 209 208 204 199 205 207 207 205 202
126 116 112 107 116 125 122 109 125 106 95 44 346 168 38 243 239 242 248 250 257 255 237 225 211 207 166 235 274 235 254 102 219 301 238 229 222 216 216 211 208 207 202
129 124 115 103 92 93 103 107 101 93 94 79 42 59 22 4 352 309 283 281 279 284 292 307 318 221 203 261 214 283 273 252 199 232 267 260 227 223 220 220 216 210 206
130 121 118 108 106 107 107 107 108 112 112 91 53 43 24 35 36 36 35 39 41 27 8 357 344 332 302 280 279 277 258 253 281 268 263 260 256 233 228 227 222 211 203